Find Jilin-1 GaoFen 03B 05 xing

NORAD ID: 46458 Int'l Des: NNA 2020-065 Owner: CGSTL Country: CN Constellation: jilin-1 operational
LEOCIRCULARRETROGRADESSO

当前视图

正在加载3D地球...

关于 Jilin-1 GaoFen 03B 05 xing

正在加载描述...

即将过境

Passes for default location (London). Set your location on the main map for personalized predictions.

高度历史

Loading altitude history...

两行轨道根数

1 46458U 20065E 26151.18476905 .00069151 00000-0 87735-3 0 9990
2 46458 97.2222 200.8375 0013151 202.1099 157.9592 15.59111667317058
Epoch: May 31, 2026 • Age: 12 hours

当前状态

高度 394.0 km
速度 7.68 km/s
星下点 -33.20°S, 114.5°W
发射日期 Sep 15, 2020
运行时间 5.7 years
类型 earth observation

技术详情

分类 Payload
质量 42.00 kg
干质量 42.00 kg
总质量 42.00 kg
长度 1.50 m
直径 1.00 m
跨度 1.50 m
形状 Box
制造商 CGSTL
平台类型 JL-1
阶段状态 In Orbit
所有者/国家 CGSTL/CN

Most Searched